Regional Weather Roundup
Issued by NWS

Home | Current Version | Previous Version | Graphics & Text | Print | Product List | Glossary On
Versions: 1 2 3 4 5 6 7 8 9 10 11 12 13 14 15 16 17 18 19 20 21 22 23 24 25 26 27 28 29 30 31 32 33 34 35 36 37 38 39 40 41 42 43 44 45 46 47 48 49 50
000
ASUS43 KMPX 032210
RWRMN
WEATHER ROUNDUP FOR MINNESOTA
NATIONAL WEATHER SERVICE TWIN CITIES/CHANHASSEN MN
500 PM CDT THU SEP 03 2015


NOTE: "FAIR" INDICATES FEW OR NO CLOUDS BELOW 12,000 FEET WITH NO
SIGNIFICANT WEATHER AND/OR OBSTRUCTIONS TO VISIBILITY. N/A MEANS
CURRENT SKY AND/OR WEATHER CONDITIONS ARE NOT AVAILABLE.

MNZ060>063-068>070-032300-
   Twin Cities Metro

CITY           SKY/WX    TMP DP  RH WIND       PRES   REMARKS
TWIN CITIES    MOSUNNY   83  72  69 E13       29.87S
ST PAUL        SUNNY     83  73  72 SE10      29.87F
CRYSTAL        MOSUNNY   86  71  60 E13       29.85F HX  91
BLAINE         MOSUNNY   84  73  70 SE10      29.88S HX  91
LAKEVILLE      MOSUNNY   82  75  78 E8        29.87S
EDEN PRAIRIE   SUNNY     86  74  67 SE13      29.85F HX  94
SOUTH ST PAUL  SUNNY     84  71  64 E8        29.87F
LAKE ELMO      FAIR      82  72  69 E8        29.90S
$$
MNZ001>005-007-008-013>017-022>024-027-028-032300-
   Northwest Minnesota

CITY           SKY/WX    TMP DP  RH WIND       PRES   REMARKS
BEMIDJI        SUNNY     83  69  61 SE18      29.86S
HALLOCK        SUNNY     93  70  46 S23G29    29.70S HX  99
ROSEAU         SUNNY     88  73  62 SE15G22   29.78S HX  96
WARROAD        SUNNY     84  72  65 SE14      29.80S
THIEF RVR FALL SUNNY     88  70  55 SE17G25   29.76F HX  92
CROOKSTON      SUNNY     90  72  55 S18       29.74S HX  96
FOSSTON        SUNNY     90  66  45 S17G23    29.80S HX  92
DETROIT LAKES  SUNNY     88  70  55 SE13      29.83S HX  92
MOORHEAD       SUNNY     91  72  52 SE14G24   29.75F HX  98
PARK RAPIDS    SUNNY     88  70  55 SE12      29.85F HX  93
MAHNOMEN       FAIR      87  72  61 SE14      29.79F HX  92
$$
MNZ006-009>011-018-025>026-032300-
   North Central Minnesota

CITY           SKY/WX    TMP DP  RH WIND       PRES   REMARKS
BAUDETTE       SUNNY     85  63  47 SE20G26   29.84S
FLAG ISLAND    SUNNY     79  66  65 SE13      29.81F
INTL FALLS     SUNNY     82  63  52 SE10      29.89F
WASKISH        SUNNY     82  66  57 SE13G21   29.86S
BIG FORK       SUNNY     81  64  57 SE7G16    29.91F
LONGVILLE      SUNNY     82  66  57 SE6       29.89F
GRAND RAPIDS     N/A     79  61  53 SE10      29.92F
CRANE LAKE     SUNNY     81  61  50 SE3       29.94F
ORR            SUNNY     82  59  44 SE8       29.90F
COOK           SUNNY     81  63  54 SE7       29.94S
WALKER         FAIR      81  68  64 SE9       29.87F
$$
MNZ012-019>021-037-032300-
   Northeast Minnesota

CITY           SKY/WX    TMP DP  RH WIND       PRES   REMARKS
DULUTH         SUNNY     69  61  75 E14       29.97S
ELY            SUNNY     79  55  44 SE9G16    29.97S
HIBBING        SUNNY     78  61  55 SE15G21   29.94F
EVELETH        SUNNY     77  59  53 SE8       29.96F
DULUTH HARBOR  FOG       59  57  94 NE8       29.97F VSB 1/2
TWO HARBORS    SUNNY     75  63  64 E9        29.95F
SILVER BAY     SUNNY     73  55  53 E7        29.96F
GRAND MARAIS     N/A     65  55  70 E5        29.99S
G MARAIS ARPRT SUNNY     73  46  38 SE5       30.03F
$$
MNZ029>031-032-039>041-046>048-054>057-064-032300-
   West Central Minnesota

CITY           SKY/WX    TMP DP  RH WIND       PRES   REMARKS
FERGUS FALLS   SUNNY     88  73  62 SE13      29.78S HX  96
MORRIS         SUNNY     90  75  62 SE14      29.79F HX 100
ALEXANDRIA     MOSUNNY   85  74  69 SE15      29.85F HX  92
ELBOW LAKE     FAIR      86  74  68 SE12      29.81S HAZE    HX  94
WADENA         SUNNY     84  72  65 E13G18    29.84F
GLENWOOD       SUNNY     88  73  62 SE12      29.85S HX  96
APPLETON       SUNNY     91  72  52 SE12      29.78F HX  98
BENSON         SUNNY     90  73  58 SE9       29.80F HX  98
ORTONVILLE     SUNNY     90  73  58 SE10G16   29.79S HX  98
MADISON        SUNNY     88  73  62 SE10      29.79S HX  96
WILLMAR        FAIR      88  75  66 SE14      29.83F HX  97
$$
MNZ033>034-036-042>043-049>051-058-059-032300-
   Central Minnesota

CITY           SKY/WX    TMP DP  RH WIND       PRES   REMARKS
ST CLOUD       MOSUNNY   84  73  69 SE12      29.86F HX  90
SAUK CENTRE    FAIR      84  74  72 SE10      29.85S HX  92
PAYNESVILLE    SUNNY     85  72  64 E10       29.85S HX  92
AITKIN         SUNNY     82  66  57 E9        29.89F
PINE RIVER     SUNNY     81  70  69 SE12      29.91F
BRAINERD       SUNNY     81  68  64 SE12G17   29.89S
STAPLES        SUNNY     84  70  61 SE6       29.86S
LONG PRAIRIE   FAIR      84  73  70 E9        29.86F HX  91
LITTLE FALLS   MOSUNNY   82  70  65 SE9       29.87F
LITCHFIELD     SUNNY     88  79  74 E13       29.85S HX 102
BUFFALO        MOSUNNY   85  72  64 E6        29.87S HX  91
MAPLE LAKE     SUNNY     85  76  74 E10       29.87S HX  94
$$
MNZ037-044-045-052-053-032300-
   East Central Minnesota

CITY           SKY/WX    TMP DP  RH WIND       PRES   REMARKS
PRINCETON      SUNNY     84  72  65 E7        29.88S
MORA           SUNNY     79  64  61 E8        29.91S
CAMBRIDGE        N/A     84  70  61 E10       29.88S
RUSH CITY      SUNNY     82  67  60 E6        29.90S
MOOSE LAKE     SUNNY     73  64  73 NE7       29.92S
HINCKLEY       FAIR      81  68  65 E10       29.91F
CLOQUET        SUNNY     70  61  73 E8        29.96F
MCGREGOR       SUNNY     79  66  65 E9        29.93S
$$
MNZ071>073-080-081-089-090-097-098-032300-
   Southwest Minnesota

CITY           SKY/WX    TMP DP  RH WIND       PRES   REMARKS
MONTEVIDEO     SUNNY     93  75  55 S10       29.81F HX 104
GRANITE FALLS  SUNNY     88  74  62 E13       29.81F HX  97
CANBY          SUNNY     90  73  58 SE9       29.79F HX  97
MARSHALL       SUNNY     90  70  51 S12       29.81F HX  95
REDWOOD FALLS  SUNNY     89  74  60 SE13G18   29.80F HX  98
OLIVIA         SUNNY     88  73  62 SE12      29.82S HX  96
PIPESTONE      SUNNY     88  70  55 SE10      29.82F HX  92
WINDOM         SUNNY     88  72  58 SE10      29.83F HX  94
WORTHINGTON    SUNNY     86  72  62 S13       29.83S HX  92
JACKSON        SUNNY     88  73  62 SE12      29.85S HX  96
TRACY          SUNNY     88  75  64 S9        29.82S HX  98
SLAYTON        SUNNY     86  72  62 SE10      29.83F HX  93
$$
MNZ065>067-074>077-082>085-091>093-032300-
   South Central Minnesota

CITY           SKY/WX    TMP DP  RH WIND       PRES   REMARKS
MANKATO        SUNNY     88  75  66 E13       29.83F HX  97
NEW ULM        SUNNY     88  73  62 E12       29.82F HX  96
ST JAMES       SUNNY     90  75  62 SE10      29.83S HX 100
FAIRMONT       SUNNY     88  68  51 SE10G17   29.83S HX  91
GLENCOE        SUNNY     90  77  66 E9        29.84F HX 102
FARIBAULT      SUNNY     88  75  66 SE9       29.86F HX  97
OWATONNA       MOSUNNY   88  73  62 E9        29.86F HX  96
WASECA         SUNNY     86  72  62 E8        29.86F HX  92
ALBERT LEA     SUNNY     88  73  62 SE7       29.86F HX  96
$$
MNZ078>079-086>088-094>096-032300-
   Southeast Minnesota

CITY           SKY/WX    TMP DP  RH WIND       PRES   REMARKS
ROCHESTER      MOSUNNY   87  74  64 SE8       29.89F HX  95
RED WING       SUNNY     84  72  65 SE9       29.87S
STANTON        SUNNY     86  74  68 E8        29.86S HX  94
DODGE CENTER   SUNNY     86  73  66 SE6       29.88F HX  93
WINONA         SUNNY     90  73  58 E7        29.88F HX  98
AUSTIN         SUNNY     88  73  62 S6        29.86F HX  96
PRESTON        SUNNY     86  72  62 SE5       29.90S HX  92
$$
ABBREVIATIONS USED IN REMARKS
   TC - TEMPERATURES IN CELSIUS
  WCI - WIND CHILL INDEX
   HX - HEAT INDEX
  VSB - VISIBILITY
$$



USA.gov is the U.S. government's official web portal to all federal, state and local government web resources and services.